| time (UTC) | temp F | wind direction | speed MPH | gust MPH | rain 1hr in | rain 24hr in | rain mn in | humidity % | barometer mb |
| 20260504023926 | 71 | 173 | 1.0 | 3.0 | 0.00 | 0.00 | 0.00 | 59 | 1018.0 |
| 20260504023427 | 71 | 173 | 1.0 | 3.0 | 0.00 | 0.00 | 0.00 | 58 | 1018.0 |
| 20260504023200 | 72 | 173 | 1.0 | 4.0 | 0.00 | 0.00 | 0.00 | 58 | 1018.0 |
| 20260504022657 | 72 | 173 | 1.0 | 4.0 | 0.00 | 0.00 | 0.00 | 58 | 1018.1 |
| 20260504022159 | 72 | 148 | 1.0 | 7.0 | 0.00 | 0.00 | 0.00 | 58 | 1018.0 |
| 20260504021427 | 72 | 155 | 2.0 | 7.0 | 0.00 | 0.00 | 0.00 | 57 | 1017.9 |
| 20260504021157 | 73 | 138 | 2.0 | 7.0 | 0.00 | 0.00 | 0.00 | 56 | 1017.8 |
| 20260504020426 | 73 | 136 | 2.0 | 7.0 | 0.00 | 0.00 | 0.00 | 55 | 1017.8 |
| 20260504020157 | 73 | 134 | 2.0 | 11.0 | 0.00 | 0.00 | 0.00 | 55 | 1017.9 |
| 20260504015427 | 73 | 163 | 2.0 | 11.0 | 0.00 | 0.00 | 0.00 | 54 | 1017.9 |
| 20260504015155 | 73 | 169 | 3.0 | 12.0 | 0.00 | 0.00 | 0.00 | 54 | 1017.9 |
| 20260504014424 | 73 | 163 | 3.0 | 12.0 | 0.00 | 0.00 | 0.00 | 53 | 1017.8 |
| 20260504014158 | 73 | 0 | 2.0 | 6.0 | 0.00 | 0.00 | 0.00 | 53 | 1017.7 |
| 20260504013652 | 74 | 0 | 2.0 | 10.0 | 0.00 | 0.00 | 0.00 | 53 | 1017.7 |
| 20260504012926 | 74 | 0 | 3.0 | 10.0 | 0.00 | 0.00 | 0.00 | 52 | 1017.7 |
| 20260504012422 | 74 | 0 | 2.0 | 11.0 | 0.00 | 0.00 | 0.00 | 52 | 1017.6 |
| 20260504012418 | 74 | 0 | 2.0 | 8.0 | 0.00 | 0.00 | 0.00 | 52 | 1017.7 |
| 20260504011418 | 74 | 0 | 2.0 | 11.0 | 0.00 | 0.00 | 0.00 | 51 | 1017.6 |
| 20260504010916 | 74 | 0 | 2.0 | 8.0 | 0.00 | 0.00 | 0.00 | 51 | 1017.5 |
| 20260504010414 | 74 | 0 | 2.0 | 8.0 | 0.00 | 0.00 | 0.00 | 51 | 1017.6 |
| 20260504010147 | 75 | 0 | 2.0 | 8.0 | 0.00 | 0.00 | 0.00 | 51 | 1017.6 |
| 20260504005414 | 75 | 0 | 3.0 | 8.0 | 0.00 | 0.00 | 0.00 | 50 | 1017.5 |
| 20260504004915 | 75 | 0 | 2.0 | 6.0 | 0.00 | 0.00 | 0.00 | 51 | 1017.5 |
| 20260504004646 | 75 | 0 | 2.0 | 6.0 | 0.00 | 0.00 | 0.00 | 50 | 1017.6 |
| 20260504003913 | 75 | 0 | 2.0 | 6.0 | 0.00 | 0.00 | 0.00 | 50 | 1017.6 |
| 20260504003411 | 75 | 0 | 2.0 | 6.0 | 0.00 | 0.00 | 0.00 | 49 | 1017.5 |
| 20260504002909 | 76 | 0 | 2.0 | 6.0 | 0.00 | 0.00 | 0.00 | 50 | 1017.4 |
| 20260504002408 | 76 | 0 | 1.0 | 6.0 | 0.00 | 0.00 | 0.00 | 51 | 1017.5 |
| 20260504001904 | 76 | 0 | 1.0 | 8.0 | 0.00 | 0.00 | 0.00 | 51 | 1017.5 |
| 20260504001402 | 76 | 0 | 1.0 | 8.0 | 0.00 | 0.00 | 0.00 | 51 | 1017.5 |
| 20260504001135 | 76 | 131 | 2.0 | 8.0 | 0.00 | 0.00 | 0.00 | 49 | 1017.3 |
| 20260504000401 | 76 | 109 | 3.0 | 8.0 | 0.00 | 0.00 | 0.00 | 49 | 1017.5 |
| 20260504000128 | 76 | 146 | 2.0 | 9.0 | 0.00 | 0.00 | 0.00 | 48 | 1017.5 |
| 20260503235359 | 76 | 145 | 2.0 | 9.0 | 0.00 | 0.00 | 0.00 | 49 | 1017.6 |
| 20260503234858 | 76 | 163 | 3.0 | 11.0 | 0.00 | 0.00 | 0.00 | 48 | 1017.6 |
| 20260503234357 | 76 | 136 | 3.0 | 11.0 | 0.00 | 0.00 | 0.00 | 51 | 1017.5 |
| 20260503233857 | 77 | 134 | 3.0 | 11.0 | 0.00 | 0.00 | 0.00 | 51 | 1017.6 |
| 20260503233357 | 77 | 133 | 3.0 | 11.0 | 0.00 | 0.00 | 0.00 | 48 | 1017.7 |
| 20260503232858 | 77 | 130 | 2.0 | 9.0 | 0.00 | 0.00 | 0.00 | 47 | 1017.7 |
| 20260503232353 | 77 | 178 | 3.0 | 12.0 | 0.00 | 0.00 | 0.00 | 47 | 1017.8 |
| 20260503231854 | 77 | 140 | 3.0 | 12.0 | 0.00 | 0.00 | 0.00 | 46 | 1017.8 |
| 20260503231351 | 77 | 121 | 3.0 | 8.0 | 0.00 | 0.00 | 0.00 | 47 | 1017.8 |
| 20260503230852 | 78 | 126 | 3.0 | 9.0 | 0.00 | 0.00 | 0.00 | 46 | 1017.7 |
| 20260503230353 | 78 | 88 | 3.0 | 9.0 | 0.00 | 0.00 | 0.00 | 48 | 1017.6 |
| 20260503230122 | 78 | 170 | 3.0 | 9.0 | 0.00 | 0.00 | 0.00 | 46 | 1017.7 |
| 20260503225348 | 78 | 142 | 4.0 | 14.0 | 0.00 | 0.00 | 0.00 | 47 | 1017.8 |
| 20260503224844 | 78 | 160 | 4.0 | 14.0 | 0.00 | 0.00 | 0.00 | 45 | 1017.9 |
| 20260503224344 | 78 | 136 | 2.0 | 6.0 | 0.00 | 0.00 | 0.00 | 45 | 1017.9 |
| 20260503223842 | 78 | 150 | 1.0 | 6.0 | 0.00 | 0.00 | 0.00 | 43 | 1017.9 |
| 20260503223341 | 78 | 142 | 1.0 | 7.0 | 0.00 | 0.00 | 0.00 | 45 | 1017.9 |
| 20260503222841 | 77 | 144 | 2.0 | 7.0 | 0.00 | 0.00 | 0.00 | 45 | 1018.0 |
| 20260503222336 | 78 | 141 | 2.0 | 7.0 | 0.00 | 0.00 | 0.00 | 43 | 1018.2 |
| 20260503221835 | 79 | 132 | 2.0 | 7.0 | 0.00 | 0.00 | 0.00 | 37 | 1018.3 |
| 20260503221335 | 79 | 164 | 1.0 | 9.0 | 0.00 | 0.00 | 0.00 | 39 | 1018.3 |
| 20260503220838 | 79 | 180 | 2.0 | 9.0 | 0.00 | 0.00 | 0.00 | 39 | 1018.3 |
| 20260503220336 | 79 | 146 | 2.0 | 9.0 | 0.00 | 0.00 | 0.00 | 39 | 1018.2 |
| 20260503215837 | 79 | 92 | 1.0 | 9.0 | 0.00 | 0.00 | 0.00 | 39 | 1018.3 |
| 20260503215333 | 79 | 98 | 1.0 | 6.0 | 0.00 | 0.00 | 0.00 | 41 | 1018.2 |
| 20260503214827 | 78 | 154 | 2.0 | 6.0 | 0.00 | 0.00 | 0.00 | 43 | 1018.2 |
| 20260503214326 | 78 | 191 | 2.0 | 6.0 | 0.00 | 0.00 | 0.00 | 39 | 1018.3 |
| 20260503213826 | 79 | 140 | 2.0 | 6.0 | 0.00 | 0.00 | 0.00 | 40 | 1018.4 |
| 20260503213319 | 79 | 146 | 2.0 | 8.0 | 0.00 | 0.00 | 0.00 | 41 | 1018.7 |
| 20260503212818 | 79 | 153 | 3.0 | 8.0 | 0.00 | 0.00 | 0.00 | 40 | 1018.7 |
| 20260503212318 | 80 | 146 | 3.0 | 9.0 | 0.00 | 0.00 | 0.00 | 44 | 1018.8 |
| 20260503211815 | 80 | 151 | 3.0 | 10.0 | 0.00 | 0.00 | 0.00 | 37 | 1018.9 |
| 20260503211316 | 80 | 126 | 1.0 | 10.0 | 0.00 | 0.00 | 0.00 | 41 | 1018.9 |
| 20260503210815 | 80 | 106 | 1.0 | 5.0 | 0.00 | 0.00 | 0.00 | 38 | 1018.9 |
| 20260503210315 | 80 | 161 | 2.0 | 5.0 | 0.00 | 0.00 | 0.00 | 39 | 1018.9 |
| 20260503205816 | 80 | 165 | 1.0 | 9.0 | 0.00 | 0.00 | 0.00 | 44 | 1019.0 |
| 20260503205316 | 80 | 145 | 1.0 | 9.0 | 0.00 | 0.00 | 0.00 | 43 | 1019.0 |
| 20260503205047 | 80 | 123 | 3.0 | 9.0 | 0.00 | 0.00 | 0.00 | 43 | 1019.1 |
| 20260503204306 | 80 | 136 | 3.0 | 9.0 | 0.00 | 0.00 | 0.00 | 41 | 1019.2 |
| 20260503203806 | 79 | 157 | 2.0 | 7.0 | 0.00 | 0.00 | 0.00 | 39 | 1019.3 |
| 20260503203307 | 79 | 205 | 1.0 | 5.0 | 0.00 | 0.00 | 0.00 | 47 | 1019.3 |
| 20260503202804 | 81 | 69 | 2.0 | 5.0 | 0.00 | 0.00 | 0.00 | 40 | 1019.4 |
| 20260503202305 | 81 | 46 | 1.0 | 5.0 | 0.00 | 0.00 | 0.00 | 43 | 1019.6 |
| 20260503201804 | 81 | 27 | 2.0 | 4.0 | 0.00 | 0.00 | 0.00 | 40 | 1019.7 |
| 20260503201258 | 81 | 108 | 3.0 | 6.0 | 0.00 | 0.00 | 0.00 | 44 | 1019.7 |
| 20260503200757 | 81 | 166 | 2.0 | 6.0 | 0.00 | 0.00 | 0.00 | 37 | 1019.9 |
| 20260503200526 | 80 | 275 | 2.0 | 6.0 | 0.00 | 0.00 | 0.00 | 43 | 1019.8 |
| 20260503195749 | 80 | 144 | 2.0 | 6.0 | 0.00 | 0.00 | 0.00 | 40 | 1020.0 |
| 20260503195250 | 81 | 147 | 1.0 | 6.0 | 0.00 | 0.00 | 0.00 | 38 | 1020.0 |
| 20260503194750 | 81 | 134 | 1.0 | 8.0 | 0.00 | 0.00 | 0.00 | 40 | 1020.0 |
| 20260503194520 | 80 | 74 | 2.0 | 9.0 | 0.00 | 0.00 | 0.00 | 40 | 1020.1 |
| 20260503193750 | 80 | 159 | 1.0 | 9.0 | 0.00 | 0.00 | 0.00 | 40 | 1020.2 |
| 20260503193249 | 80 | 132 | 3.0 | 9.0 | 0.00 | 0.00 | 0.00 | 38 | 1020.2 |
| 20260503192745 | 81 | 129 | 2.0 | 9.0 | 0.00 | 0.00 | 0.00 | 43 | 1020.3 |
| 20260503192246 | 81 | 136 | 1.0 | 6.0 | 0.00 | 0.00 | 0.00 | 40 | 1020.4 |
| 20260503191746 | 80 | 144 | 2.0 | 5.0 | 0.00 | 0.00 | 0.00 | 41 | 1020.6 |
| 20260503191248 | 80 | 105 | 2.0 | 5.0 | 0.00 | 0.00 | 0.00 | 39 | 1020.6 |
| 20260503191015 | 80 | 137 | 1.0 | 5.0 | 0.00 | 0.00 | 0.00 | 38 | 1020.6 |
| 20260503190245 | 80 | 111 | 2.0 | 5.0 | 0.00 | 0.00 | 0.00 | 41 | 1020.8 |
| 20260503190014 | 80 | 115 | 2.0 | 6.0 | 0.00 | 0.00 | 0.00 | 40 | 1020.9 |
| 20260503185244 | 80 | 117 | 2.0 | 7.0 | 0.00 | 0.00 | 0.00 | 42 | 1020.9 |
| 20260503185015 | 79 | 131 | 2.0 | 7.0 | 0.00 | 0.00 | 0.00 | 41 | 1021.0 |
| 20260503184241 | 79 | 134 | 1.0 | 4.0 | 0.00 | 0.00 | 0.00 | 40 | 1021.1 |
| 20260503183744 | 79 | 131 | 2.0 | 7.0 | 0.00 | 0.00 | 0.00 | 41 | 1021.1 |
| 20260503183242 | 79 | 62 | 2.0 | 7.0 | 0.00 | 0.00 | 0.00 | 41 | 1021.2 |
| 20260503182739 | 80 | 155 | 2.0 | 7.0 | 0.00 | 0.00 | 0.00 | 43 | 1021.2 |
| 20260503182239 | 79 | 111 | 2.0 | 8.0 | 0.00 | 0.00 | 0.00 | 41 | 1021.2 |
| 20260503181742 | 79 | 122 | 1.0 | 8.0 | 0.00 | 0.00 | 0.00 | 46 | 1021.3 |
| 20260503181237 | 79 | 141 | 1.0 | 8.0 | 0.00 | 0.00 | 0.00 | 43 | 1021.5 |
| 20260503180737 | 79 | 99 | 2.0 | 8.0 | 0.00 | 0.00 | 0.00 | 44 | 1021.6 |
| 20260503180238 | 79 | 140 | 2.0 | 9.0 | 0.00 | 0.00 | 0.00 | 40 | 1021.6 |
| 20260503175736 | 79 | 122 | 1.0 | 9.0 | 0.00 | 0.00 | 0.00 | 42 | 1021.7 |
| 20260503175507 | 79 | 109 | 1.0 | 4.0 | 0.00 | 0.00 | 0.00 | 45 | 1021.8 |
| 20260503175009 | 78 | 166 | 1.0 | 9.0 | 0.00 | 0.00 | 0.00 | 46 | 1021.9 |
| 20260503174236 | 78 | 167 | 1.0 | 9.0 | 0.00 | 0.00 | 0.00 | 44 | 1022.1 |
| 20260503173738 | 78 | 47 | 2.0 | 9.0 | 0.00 | 0.00 | 0.00 | 43 | 1022.1 |
| 20260503173508 | 78 | 5 | 2.0 | 9.0 | 0.00 | 0.00 | 0.00 | 43 | 1022.2 |
| 20260503172732 | 78 | 121 | 1.0 | 5.0 | 0.00 | 0.00 | 0.00 | 46 | 1022.3 |
| 20260503172231 | 78 | 51 | 2.0 | 5.0 | 0.00 | 0.00 | 0.00 | 46 | 1022.4 |
| 20260503171731 | 78 | 159 | 2.0 | 6.0 | 0.00 | 0.00 | 0.00 | 45 | 1022.4 |
| 20260503171503 | 78 | 122 | 2.0 | 6.0 | 0.00 | 0.00 | 0.00 | 45 | 1022.5 |
| 20260503170730 | 77 | 291 | 2.0 | 5.0 | 0.00 | 0.00 | 0.00 | 46 | 1022.5 |
| 20260503170230 | 77 | 218 | 1.0 | 5.0 | 0.00 | 0.00 | 0.00 | 46 | 1022.5 |
| 20260503160217 | 74 | 98 | 1.0 | 7.0 | 0.00 | 0.00 | 0.00 | 53 | 1022.7 |
| 20260503150704 | 67 | 157 | 2.0 | 7.0 | 0.00 | 0.00 | 0.00 | 71 | 1022.6 |
| 20260503150159 | 67 | 124 | 2.0 | 5.0 | 0.00 | 0.00 | 0.00 | 73 | 1022.6 |
| 20260503140141 | 62 | 136 | 0.0 | 2.0 | 0.00 | 0.00 | 0.00 | 88 | 1022.3 |
| 20260503131125 | 59 | 136 | 0.0 | 0.0 | 0.00 | 0.00 | 0.00 | 86 | 1022.0 |
| 20260503130626 | 58 | 136 | 0.0 | 0.0 | 0.00 | 0.00 | 0.00 | 86 | 1022.0 |
| 20260503130124 | 58 | 136 | 0.0 | 0.0 | 0.00 | 0.00 | 0.00 | 86 | 1022.0 |
| 20260503120117 | 57 | 136 | 0.0 | 0.0 | 0.00 | 0.00 | 0.00 | 85 | 1021.5 |
| 20260503110612 | 58 | 136 | 0.0 | 0.0 | 0.00 | 0.00 | 0.00 | 85 | 1021.1 |
| 20260503110110 | 58 | 136 | 0.0 | 0.0 | 0.00 | 0.00 | 0.00 | 85 | 1021.0 |
| 20260503081538 | 60 | 178 | 0.0 | 0.0 | 0.00 | 0.00 | 0.00 | 82 | 1020.6 |
| 20260503081040 | 60 | 178 | 0.0 | 0.0 | 0.00 | 0.00 | 0.00 | 82 | 1020.5 |
| 20260503080541 | 60 | 178 | 0.0 | 0.0 | 0.00 | 0.00 | 0.00 | 82 | 1020.7 |
| 20260503080312 | 60 | 178 | 0.0 | 0.0 | 0.00 | 0.00 | 0.00 | 82 | 1020.6 |
| 20260503072540 | 60 | 178 | 0.0 | 0.0 | 0.00 | 0.00 | 0.00 | 81 | 1020.5 |
| 20260503072031 | 60 | 178 | 0.0 | 0.0 | 0.00 | 0.00 | 0.00 | 81 | 1020.5 |
| 20260503071536 | 60 | 178 | 0.0 | 0.0 | 0.00 | 0.00 | 0.00 | 81 | 1020.6 |
| 20260503071530 | 60 | 178 | 0.0 | 0.0 | 0.00 | 0.00 | 0.00 | 81 | 1020.5 |
| 20260503070530 | 60 | 178 | 0.0 | 0.0 | 0.00 | 0.00 | 0.00 | 81 | 1020.7 |
| 20260503055003 | 61 | 178 | 0.0 | 0.0 | 0.00 | 0.00 | 0.00 | 79 | 1020.7 |
| 20260503054504 | 61 | 178 | 0.0 | 0.0 | 0.00 | 0.00 | 0.00 | 79 | 1020.8 |
| 20260503053959 | 62 | 178 | 0.0 | 0.0 | 0.00 | 0.00 | 0.00 | 79 | 1020.7 |
| 20260503053458 | 62 | 178 | 0.0 | 0.0 | 0.00 | 0.00 | 0.00 | 79 | 1020.5 |
| 20260503052957 | 62 | 178 | 0.0 | 0.0 | 0.00 | 0.00 | 0.00 | 79 | 1020.5 |
| 20260503052727 | 62 | 178 | 0.0 | 0.0 | 0.00 | 0.00 | 0.00 | 79 | 1020.4 |
| 20260503051952 | 62 | 178 | 0.0 | 0.0 | 0.00 | 0.00 | 0.00 | 78 | 1020.5 |
| 20260503051452 | 62 | 178 | 0.0 | 0.0 | 0.00 | 0.00 | 0.00 | 78 | 1020.5 |
| 20260503050950 | 62 | 178 | 0.0 | 0.0 | 0.00 | 0.00 | 0.00 | 78 | 1020.5 |
| 20260503050452 | 62 | 178 | 0.0 | 0.0 | 0.00 | 0.00 | 0.00 | 78 | 1020.5 |
| 20260503045949 | 63 | 178 | 0.0 | 0.0 | 0.00 | 0.00 | 0.00 | 77 | 1020.4 |
| 20260503045446 | 63 | 178 | 0.0 | 0.0 | 0.00 | 0.00 | 0.00 | 77 | 1020.4 |
| 20260503044944 | 63 | 178 | 0.0 | 0.0 | 0.00 | 0.00 | 0.00 | 77 | 1020.4 |
| 20260503044716 | 63 | 178 | 0.0 | 0.0 | 0.00 | 0.00 | 0.00 | 77 | 1020.3 |
| 20260503043940 | 63 | 178 | 0.0 | 0.0 | 0.00 | 0.00 | 0.00 | 77 | 1020.3 |
| 20260503043708 | 63 | 178 | 0.0 | 0.0 | 0.00 | 0.00 | 0.00 | 76 | 1020.2 |
| 20260503043209 | 64 | 178 | 0.0 | 0.0 | 0.00 | 0.00 | 0.00 | 76 | 1020.2 |
| 20260503043055 | 64 | 178 | 0.0 | 0.0 | 0.00 | 0.00 | 0.00 | 76 | 1020.2 |
| 20260503041936 | 64 | 178 | 0.0 | 0.0 | 0.00 | 0.00 | 0.00 | 76 | 1020.2 |
| 20260503041432 | 64 | 178 | 0.0 | 0.0 | 0.00 | 0.00 | 0.00 | 75 | 1020.2 |
| 20260503040931 | 64 | 178 | 0.0 | 0.0 | 0.00 | 0.00 | 0.00 | 75 | 1020.4 |
| 20260503040430 | 64 | 178 | 0.0 | 0.0 | 0.00 | 0.00 | 0.00 | 74 | 1020.3 |
| 20260503035930 | 64 | 178 | 0.0 | 0.0 | 0.00 | 0.00 | 0.00 | 74 | 1020.2 |
| 20260503035428 | 64 | 178 | 0.0 | 0.0 | 0.00 | 0.00 | 0.00 | 74 | 1020.1 |
| 20260503034929 | 64 | 178 | 0.0 | 0.0 | 0.00 | 0.00 | 0.00 | 73 | 1020.1 |
| 20260503034419 | 64 | 178 | 0.0 | 0.0 | 0.00 | 0.01 | 0.00 | 72 | 1020.0 |
| 20260503033920 | 64 | 178 | 0.0 | 0.0 | 0.00 | 0.01 | 0.00 | 71 | 1020.0 |
| 20260503033422 | 65 | 178 | 0.0 | 0.0 | 0.00 | 0.01 | 0.00 | 71 | 1019.8 |
| 20260503032917 | 65 | 178 | 0.0 | 0.0 | 0.00 | 0.01 | 0.00 | 71 | 1019.8 |
| 20260503032414 | 65 | 178 | 0.0 | 0.0 | 0.00 | 0.01 | 0.00 | 70 | 1019.8 |
| 20260503031919 | 65 | 178 | 0.0 | 0.0 | 0.00 | 0.01 | 0.00 | 70 | 1019.7 |
| 20260503031914 | 65 | 178 | 0.0 | 0.0 | 0.00 | 0.01 | 0.00 | 70 | 1019.8 |
| 20260503030914 | 65 | 178 | 0.0 | 0.0 | 0.00 | 0.01 | 0.00 | 69 | 1019.6 |
| 20260503030412 | 66 | 178 | 0.0 | 0.0 | 0.00 | 0.01 | 0.00 | 69 | 1019.6 |
| 20260503025912 | 66 | 178 | 0.0 | 0.0 | 0.00 | 0.01 | 0.00 | 69 | 1019.7 |
| 20260503025413 | 66 | 178 | 0.0 | 0.0 | 0.00 | 0.01 | 0.00 | 68 | 1019.7 |
| 20260503024913 | 66 | 178 | 0.0 | 0.0 | 0.00 | 0.01 | 0.00 | 68 | 1019.7 |
| 20260503024408 | 67 | 178 | 0.0 | 0.0 | 0.00 | 0.01 | 0.00 | 68 | 1019.6 |
| 20260503024138 | 67 | 178 | 0.0 | 0.0 | 0.00 | 0.01 | 0.00 | 67 | 1019.6 |